Retour au catalogue

STARLINK-35946

ActifCommunicationsVLEO
NORAD 66522·PAYLOAD·🇺🇸 United States

Lancé Nov 19, 2025 depuis Cape Canaveral Space Force Station

Loading…

Prochains Passages (prochaines 24 heures)

TLE

FraisSource: CelesTrak SupGP

Époque: Sep 15, 2026, 02:46 UTC

1 66522C 25265G   26258.11576389  .00012057  00000+0  43659-3 0  2586
2 66522  43.0022 288.4222 0001206 267.6396 344.3316 15.27580506    14

Suivez STARLINK-35946 en temps réel avec AllMySat

Download on the App Store